Regional Weather Roundup
Issued by NWS Sioux Falls, SD

Home | Current Version | Previous Version | Graphics & Text | Print | Product List | Glossary Off
Versions: 1 2 3 4 5 6 7 8 9 10 11 12 13 14 15 16 17 18 19 20 21 22 23 24 25 26 27 28 29 30 31 32 33 34 35 36 37 38 39 40 41 42 43 44 45 46 47 48 49 50

000
ASUS43 KFSD 162110
RWRFSD

WEATHER ROUNDUP FOR SE SOUTH DAKOTA/SW MINNESOTA/NW IOWA
NATIONAL WEATHER SERVICE SIOUX FALLS SD
400 PM CDT TUE SEP 16 2014

NOTE: "FAIR" INDICATES FEW OR NO CLOUDS BELOW 12,000 FEET WITH NO
SIGNIFICANT WEATHER AND OR OBSTRUCTIONS TO VISIBILITY.


SDZ038>040-050-052>070-162200-
SOUTHEAST SOUTH DAKOTA

CITY           SKY/WX    TMP DP  RH WIND       PRES   REMARKS
CHAMBERLAIN    SUNNY     75  57  53 S7        29.93F
HURON          SUNNY     73  52  47 S18       29.95F
MADISON        FAIR      66  50  55 S14G21    30.02F
MITCHELL       SUNNY     73  54  51 S15G23    29.97F
SIOUX FALLS    PTSUNNY   67  49  52 S17       30.03F
WINNER         FAIR      78  55  44 SW7       29.94F
YANKTON        SUNNY     70  52  52 S15G21    30.01F
$$

MNZ071-072-080-081-089-090-097-098-162200-
SOUTHWEST MINNESOTA

CITY           SKY/WX    TMP DP  RH WIND       PRES   REMARKS
FAIRMONT       SUNNY     66  41  39 SW8G16    30.07F
JACKSON        SUNNY     66  43  42 S9        30.08F
LUVERNE        CLOUDY    68  45  42 S9        30.04F
MARSHALL       PTSUNNY   70  45  40 S13       30.02F
MONTEVIDEO     SUNNY     72  45  37 SW6       30.03F
PIPESTONE      CLOUDY    66  46  48 S13       30.03F
REDWOOD FALLS  SUNNY     69  44  40 S8        30.04F
TRACY          MOSUNNY   69  47  45 SW12      30.04F
WINDOM         SUNNY     68  45  42 S9        30.06F
WORTHINGTON    SUNNY     66  45  45 S14       30.07F
$$

IAZ001>003-012>014-020>022-031-032-NEZ013-014-SDZ071-162200-
NORTHWEST IOWA

CITY           SKY/WX    TMP DP  RH WIND       PRES   REMARKS
CHEROKEE       SUNNY     66  47  48 SW6       30.08F
DENISON        SUNNY     66  48  52 S8G14     30.07F
ESTHERVILLE    SUNNY     66  44  45 SW8       30.07F
LE MARS        SUNNY     68  48  49 S9G16     30.06F
ORANGE CITY    SUNNY     70  46  43 S13       30.06F
SHELDON        SUNNY     66  46  48 S10G17    30.05F
SIOUX CITY     SUNNY     70  47  43 SE12      30.06F
SPENCER        SUNNY     67  44  43 SW10      30.08F
STORM LAKE     SUNNY     66  54  63 SW8G15    30.08F
$$

ABBREVIATIONS USED IN REMARKS
   TC - TEMPERATURE IN CELSIUS
  WCI - WIND CHILL INDEX
   HX - HEAT INDEX
  VSB - VISIBILITY




USA.gov is the U.S. government's official web portal to all federal, state and local government web resources and services.